Location: Curicchi
(45.0167°N, 12.0500°E)
Time: 16:25:09
(UTC+00:00)

X-37B - Visible Passes

Search period start: 03 August 2021 00:00
Search period end: 13 August 2021 00:00
Orbit: 383 x 392 km, 45.0° (Epoch: 01 July)

Date Brightness Start Highest point End Pass type
(mag) Time Alt. Az. Time Alt. Az. Time Alt. Az.
03 Aug 3.0 01:39:35 14° SE 01:39:35 14° SE 01:40:39 10° ESE visible
03 Aug 0.8 03:11:51 11° WSW 03:14:49 58° SSE 03:17:59 10° E visible
04 Aug 1.3 02:15:59 35° S 02:16:32 39° SSE 02:19:33 10° E visible
05 Aug 3.1 01:20:05 16° ESE 01:20:05 16° ESE 01:21:01 10° E visible
05 Aug 0.5 02:52:22 17° WSW 02:54:41 77° S 02:57:53 10° E visible
06 Aug 0.7 01:56:29 57° SSE 01:56:29 57° SSE 01:59:30 10° E visible
07 Aug 3.4 01:00:37 13° E 01:00:37 13° E 01:01:04 10° E visible
07 Aug 0.5 02:32:54 26° W 02:34:34 90° N 02:37:47 10° E visible
08 Aug 1.5 01:37:06 43° E 01:37:06 43° E 01:39:24 10° E visible
08 Aug 0.5 03:09:39 10° W 03:12:51 85° S 03:16:03 10° E visible
09 Aug 0.5 02:13:38 46° W 02:14:29 87° N 02:17:41 10° E visible
10 Aug 2.8 01:18:01 22° E 01:18:01 22° E 01:19:17 10° E visible
10 Aug 0.5 02:50:18 16° W 02:52:44 69° SSW 02:55:54 10° ESE visible
11 Aug 0.8 01:54:51 62° ESE 01:54:51 62° ESE 01:57:34 10° E visible
11 Aug 1.4 03:27:56 10° W 03:30:50 32° SSW 03:33:44 10° SE visible
12 Aug 0.8 02:31:57 41° WSW 02:32:34 48° SSW 02:35:40 10° SE visible
